Regional Weather Roundup
Issued by NWS Boston, MA

Home | Current Version | Previous Version | Text Only | Print | Product List | Glossary On
Versions: 1 2 3 4 5 6 7 8 9 10 11 12 13 14 15 16 17 18 19 20 21 22 23 24 25 26 27 28 29 30 31 32 33 34 35 36 37 38 39 40 41 42 43 44 45 46 47 48 49 50
225
ASUS41 KBOX 081810
RWRBOX

REGIONAL WEATHER ROUNDUP
NATIONAL WEATHER SERVICE TAUNTON MA
100 PM EST MON FEB 08 2016

NOTE:  "FAIR" INDICATES FEW OR NO CLOUDS BELOW 12,000 FEET WITH NO
SIGNIFICANT WEATHER AND/OR OBSTRUCTIONS TO VISIBILITY.  THE FOLLOWING
OBSERVATION LOCATIONS DO NOT REPORT PRESENT WEATHER...PROVINCETOWN...
SMITHFIELD...BLOCK ISLAND...KEENE...AND OXFORD.

MAZALL-081900-
EASTERN MASSACHUSETTS

CITY           SKY/WX    TMP DP  RH WIND       PRES   REMARKS
BOSTON         SNOW      19  15  84 N21G31    29.76F VSB 1/4 WCI   3
6HR MIN TEMP:  18; 6HR MAX TEMP:  29; 6HR PCP:  0.08;

BEVERLY        SNOW      19  13  77 N15G21    29.76F VSB 1/2 WCI   5
LAWRENCE       SNOW      18  14  84 N14       29.80F VSB 1/2 WCI   4
BEDFORD        SNOW      18  16  92 N13       29.77F VSB 1/2 WCI   5
BLUE HILL        N/A     16  14  92 N20G33    29.67F WCI  -1
NORWOOD        HVY SNOW  19  14  81 N13G22    29.74F VSB 1/4 WCI   6
MARSHFIELD     SNOW      30  28  93 N24G39    29.70F VSB 1/4 WCI  16
PLYMOUTH       FOG       26  24  92 N25G36    29.65F VSB 1/4 WCI  11
TAUNTON        LGT SNOW  22  16  78 N15G28    29.67F WCI   9
NEW BEDFORD    LGT SNOW  23  20  88 N16G26    29.63F VSB 1   WCI  10
$$

MAZALL-081900-
CAPE COD AND THE ISLANDS

CITY           SKY/WX    TMP DP  RH WIND       PRES   REMARKS
FALMOUTH       SNOW      30  28  93 NE31G46   29.59F VSB 1/4 WCI  15
HYANNIS        FOG       30  29  96 N28G40    29.57F VSB 1/4 WCI  15
CHATHAM        SNOW      29  29 100 NE21G40   29.58F VSB 1/4 WCI  16
PROVINCETOWN   HVY SNOW  31  30  96 NE25G44   29.64F VSB 1/4 WCI  17
NANTUCKET      BLWGSNOW  32  30  92 N44G54    29.51F VSB 1/4 WCI  15
MARTHAS VNYRD  HVY SNOW  30  28  92 N22G38    29.57F VSB 1/4 WCI  17
$$

MAZALL-081900-
CENTRAL AND WESTERN MASSACHUSETTS

CITY           SKY/WX    TMP DP  RH WIND       PRES   REMARKS
WORCESTER      SNOW      16  12  84 N14G25    29.69F VSB 1/2 WCI   2
6HR MIN TEMP:  15; 6HR MAX TEMP:  21; 6HR PCP:  0.11;

FITCHBURG      SNOW      19  13  77 N10G20    29.79F VSB 1/2 WCI   7
ORANGE         SNOW      20  15  81 N10       29.79F VSB 1/2 WCI   9
SPRINGFIELD    LGT SNOW  22  17  81 N13       29.77F VSB 3/4 WCI   9
WESTFIELD      SNOW      21  17  84 N16       29.79F VSB 1/2 WCI   7
NORTH ADAMS    PTSUNNY   28  -1  28 VRB3      29.79F
PITTSFIELD     CLOUDY    24   4  42 NE9       29.74F WCI  14
$$

RIZALL-081900-
RHODE ISLAND

CITY           SKY/WX    TMP DP  RH WIND       PRES   REMARKS
PROVIDENCE     HVY SNOW  20  16  84 N24G32    29.70F VSB 1/4 WCI   3
6HR MIN TEMP:  20; 6HR MAX TEMP:  33; 6HR PCP:  0.07;

NEWPORT        CLOUDY    21  17  84 N21G33    29.63F FOG     WCI   5
BLOCK ISLAND   CLOUDY    25  19  80 N21G33    29.61F WCI  10
SMITHFIELD     CLOUDY    18  14  86 N17G29    29.68F VSB 1/2 WCI   2
WESTERLY       FOG       23  20  88 N14G26    29.67F VSB 1/2 WCI  11
$$

CTZALL-081900-
CONNECTICUT

CITY           SKY/WX    TMP DP  RH WIND       PRES   REMARKS
BRADLEY INTL   LGT SNOW  22  16  78 N13G23    29.77F WCI  10
6HR MIN TEMP:  21; 6HR MAX TEMP:  30; 6HR PCP: TRACE;

HARTFORD       LGT SNOW  23  18  81 N15G24    29.78F VSB 3/4 WCI  10
BRIDGEPORT     LGT SNOW  26  22  84 N15       29.75F VSB 3/4 WCI  14
DANBURY        LGT SNOW  26  19  74 NE10      29.75F VSB 1   WCI  16
GROTON         FOG       22  19  89 N22G29    29.68F VSB 3/4 WCI   6
NEW HAVEN      LGT SNOW  24  19  81 N15G24    29.74F VSB 3/4 WCI  11
CHESTER        SNOW      23  21  93 N16       29.70F VSB 1/2 WCI  10
MERIDEN        LGT SNOW  24  16  71 N15       29.76F WCI  11
WILLIMANTIC    LGT SNOW  23  16  74 N12G23    29.74F VSB 3/4 WCI  12
OXFORD         LGT SNOW  21  10  63 N16G25    29.73F VSB 1   WCI   7
$$

MEZ002-015-021-024-NHZ003-005-008-011-012-014-VTZ005-008-081900-
NORTHERN NEW ENGLAND

CITY           SKY/WX    TMP DP  RH WIND       PRES   REMARKS
PORTLAND ME    LGT SNOW  19  10  68 N23G30    29.84F WCI   2
6HR MIN TEMP:  16; 6HR MAX TEMP:  19; 6HR PCP: TRACE;

BANGOR ME      FLURRIES  17  10  74 N14       29.93F WCI   3
CONCORD NH     CLOUDY    22   1  40 N13       29.82F WCI  10
MANCHESTER NH  LGT SNOW  20  15  81 N15       29.79F VSB 3/4 WCI   6
NASHUA NH      CLOUDY    19  16  86 N12       29.81F VSB 3/4 WCI   7
PORTSMOUTH NH  LGT SNOW  18  13  82 N10       29.79F VSB 3/4 WCI   6
JAFFREY NH     LGT SNOW  17  11  77 N8        29.75F VSB 3/4 WCI   7
KEENE NH       CLOUDY    25   3  39 MISG        N/A
BURLINGTON VT  PTSUNNY   27  13  55 NW8       29.86F WCI  19
MT. WASHINGTON NOT AVBL
$$

NYZ052-076-081900-
EASTERN NEW YORK

CITY           SKY/WX    TMP DP  RH WIND       PRES   REMARKS
ALBANY         CLOUDY    36   3  25 N9        29.82F WCI  29
6HR MIN TEMP:  27; 6HR MAX TEMP:  36;

NEW YORK CITY  CLOUDY    32  24  72 N16       29.75F WCI  21
6HR MIN TEMP:  31; 6HR MAX TEMP:  40; 6HR PCP:  0.06;

$$

ANZALL-081900-
MARINE OBSERVATIONS

STATION/POSITION TIME  TEMP    WIND        PRES    VSBY  WAVE
                       AIR SEA DIR/SP/G                  HT/PER
                 (UTC) (F)     (DEG/KT/KT) (MB)    (MI)  (FT/S)
BOSTON BUOY      1750   27 41   20/ 31/ 39 1005.4F        15/10
BUZZARDS BAY     1800          360/ 30/ 32 1001.9F
NANTUCKET SOUND  1750   32 41   10/ 31/ 41  999.9F         7/ 5
MASS BAY-STELLWA 1704   27 43   10/ 29/ 35   N/A    1 7/8 15/10
ISLE OF SHOALS   1800   20      10/ 35/ 39 1007.5F
S OF BLOCK IS    NOT AVBL
$$

......................KEY.........................
  SKY/WX - SKY CONDITION/PRESENT WEATHER
  TMP    - TEMPERATURE IN FAHRENHEIT
  DWPT   - DEWPOINT IN FAHRENHEIT
  RH     - RELATIVE HUMIDITY IN PERCENT
  WIND   - DIRECTION AND SPEED IN MPH
  PRES   - MEAN SEA LEVEL PRESSURE IN INCHES OF HG
  WCI    - WIND CHILL INDEX
  VSB    - VISIBILITY IN MILES
  HX     - HEAT INDEX
  TC     - TEMPERATURE IN CELSIUS
  VRB    - VARIABLE WIND DIRECTION
  N/A    - NOT AVAILABLE




USA.gov is the U.S. government's official web portal to all federal, state and local government web resources and services.